Weather History for Faith, SD

Change the Weather History Date:

Tuesday, April 2, 2013

  Actual Average Record
Temperature  
Mean Temperature 38 °F 39 °F  
Max Temperature 55 °F 50 °F 66 °F (2005)
Min Temperature 20 °F 28 °F 10 °F (2002)
Degree Days  
Heating Degree Days 27 26  
Month to date heating degree days 58 52  
Since 1 July heating degree days 6467 6743  
Cooling Degree Days 0 0  
Month to date cooling degree days 0 0  
Year to date cooling degree days 0 0  
Moisture  
Dew Point 20 °F    
Average Humidity 55    
Maximum Humidity 84    
Minimum Humidity 26    
Precipitation  
Precipitation 0.00 in 0.03 in 0.36 in (2007)
Month to date precipitation 0.00 0.06  
Year to date precipitation 1.00 1.66  
Sea Level Pressure  
Sea Level Pressure 30.21 in    
Wind  
Wind Speed 11 mph (SSE)    
Max Wind Speed 22 mph    
Max Gust Speed 29 mph    
T = Trace of Precipitation, MM = Missing Value Source: NWS Daily Summary

Daily Weather History Graph

Daily Weather History Graph

Search for Another Location

Airport:

Trip Planner

Search our weather history database for the weather conditions in past years. The results will help you decide how hot, cold, wet, or windy it might be!

Date:

Astronomy

Apr. 02, 2013 Rise Set
Actual Time 6:26 AM MDT 7:17 PM MDT
Civil Twilight 5:56 AM MDT 7:47 PM MDT
Nautical Twilight 5:21 AM MDT 8:22 PM MDT
Astronomical Twilight 4:44 AM MDT 9:00 PM MDT
Moon 1:34 AM MDT (4/2) 11:08 AM MDT (4/2)
Length of Visible Light 13h 50m
Length of Day
12h 51m
Waning Gibbous, 55% of the Moon is Illuminated
Apr 2
Waning Gibbous
Apr 2
Last Quarter
Apr 10
New
Apr 18
First Quarter
Apr 25
Full

Hourly Weather History & Observations

Time (MDT) Temp. Windchill Dew Point Humidity Pressure Visibility Wind Dir Wind Speed Gust Speed Precip Events Conditions
12:56 AM 23.0 °F 11.7 °F 17.1 °F 78% 30.26 in - South 11.5 mph - N/A   Unknown
1:56 AM 21.9 °F 9.8 °F 17.1 °F 82% 30.25 in - SSE 12.7 mph - N/A   Unknown
2:56 AM 21.0 °F 9.9 °F 17.1 °F 85% 30.23 in - SSE 10.4 mph - N/A   Unknown
3:56 AM 21.0 °F 10.6 °F 16.0 °F 81% 30.22 in - SSE 9.2 mph - N/A   Unknown
4:56 AM 19.9 °F 9.3 °F 16.0 °F 85% 30.22 in - SSE 9.2 mph - N/A   Unknown
5:56 AM 25.0 °F 18.1 °F 18.0 °F 75% 30.22 in - SE 5.8 mph - N/A   Unknown
6:56 AM 28.0 °F 20.0 °F 19.0 °F 69% 30.23 in - SSE 8.1 mph - N/A   Unknown
7:56 AM 32.0 °F 26.4 °F 21.0 °F 64% 30.25 in - SSE 5.8 mph - N/A   Unknown
8:56 AM 37.0 °F 33.3 °F 24.1 °F 59% 30.25 in - SSE 4.6 mph - N/A   Unknown
9:56 AM 42.1 °F 38.4 °F 21.9 °F 45% 30.25 in - SSE 5.8 mph - N/A   Unknown
10:56 AM 45.0 °F 39.7 °F 21.9 °F 40% 30.25 in - SE 10.4 mph - N/A   Unknown
11:56 AM 48.0 °F - 21.9 °F 36% 30.24 in - SSE 11.5 mph 19.6 mph N/A   Unknown
12:56 PM 48.9 °F - 21.9 °F 35% 30.23 in - SSE 9.2 mph 17.3 mph N/A   Unknown
1:56 PM 50.0 °F - 21.9 °F 33% 30.22 in - Variable 6.9 mph - N/A   Unknown
2:56 PM 52.0 °F - 21.9 °F 31% 30.20 in - SE 6.9 mph - N/A   Unknown
3:56 PM 53.1 °F - 21.0 °F 29% 30.18 in - SE 5.8 mph - N/A   Unknown
4:56 PM 54.0 °F - 19.9 °F 26% 30.18 in - ESE 9.2 mph - N/A   Unknown
5:56 PM 53.1 °F - 19.9 °F 27% 30.17 in - SSE 9.2 mph - N/A   Unknown
6:56 PM 48.9 °F - 21.9 °F 35% 30.16 in - SE 11.5 mph - N/A   Unknown
7:56 PM 43.0 °F 36.0 °F 21.9 °F 43% 30.17 in - ESE 13.8 mph - N/A   Unknown
8:56 PM 39.9 °F 31.8 °F 21.0 °F 47% 30.17 in - SE 15.0 mph - N/A   Unknown
9:56 PM 37.0 °F 27.0 °F 21.9 °F 54% 30.17 in - SE 18.4 mph - N/A   Unknown
10:56 PM 33.1 °F 21.5 °F 23.0 °F 66% 30.17 in - SE 19.6 mph - N/A   Unknown
11:56 PM 30.9 °F 18.7 °F 23.0 °F 72% 30.15 in - SSE 19.6 mph - N/A   Unknown